Location: *
(43.2048°N, 0.1612°E)
Time: 18:57:38
(UTC+00:00)

Cosmos 1328 Rocket - Pass Details

Date: 30 September 2023
Orbit: 600 x 623 km, 82.5° (Epoch: 05 December)

Event Time Altitude Azimuth Distance (km) Brightness Sun altitude
Rises 05:16:42 0° 195° (SSW) 2,890 6.8 -7.8°
Reaches altitude 10° 05:18:56 10° 198° (SSW) 1,987 5.9 -7.4°
Maximum altitude 05:23:18 63° 279° (W) 697 3.6 -6.6°
Drops below altitude 10° 05:27:41 10° 2° (N) 1,993 6.2 -5.8°
Sets 05:29:57 0° 6° (N) 2,900 7.1 -5.4°
